This is the latest recevied weather packets stored in our database for station/object KC3SOZ. If no packets are shown the sender has not sent any weather packets the latest 10 day(s).
| Time | Temp. | Humidity | Pressure | Rain* | Wind** | Luminosity | Snow |
|---|---|---|---|---|---|---|---|
| 1778151722 | 8.89° C | 71% | 1013.5 hPa | 0 mm | - | 49 W/m² | - |
| 1778151420 | 8.89° C | 72% | 1013.6 hPa | 0 mm | - | 43 W/m² | - |
| 1778151115 | 8.89° C | 73% | 1013.3 hPa | 0 mm | - | 38 W/m² | - |
| 1778150813 | 8.89° C | 73% | 1013.6 hPa | 0 mm | - | 35 W/m² | - |
| 1778150509 | 8.33° C | 72% | 1013.4 hPa | 0 mm | - | 32 W/m² | - |
| 1778150205 | 8.89° C | 73% | 1013.3 hPa | 0 mm | - | 28 W/m² | - |
| 1778149902 | 8.33° C | 72% | 1013 hPa | 0 mm | - | 24 W/m² | - |
| 1778149598 | 8.33° C | 76% | 1013 hPa | 0 mm | - | 21 W/m² | - |
| 1778149295 | 8.33° C | 76% | 1012.8 hPa | 0 mm | - | 17 W/m² | - |
| 1778148991 | 8.33° C | 76% | 1012.7 hPa | 0 mm | - | 14 W/m² | - |
| 1778148686 | 8.33° C | 77% | 1012.7 hPa | 0 mm | - | 10 W/m² | - |
| 1778148384 | 8.33° C | 77% | 1013 hPa | 0 mm | - | 7 W/m² | - |
| 1778148082 | 8.33° C | 80% | 1012.5 hPa | 0 mm | - | 4 W/m² | - |
| 1778147780 | 8.33° C | 80% | 1012.7 hPa | 0 mm | - | 2 W/m² | - |
| 1778147476 | 8.89° C | 79% | 1012.5 hPa | 0 mm | - | 1 W/m² | - |
| 1778147172 | 8.89° C | 79% | 1012.3 hPa | 0 mm | - | 1 W/m² | - |
| 1778146870 | 8.89° C | 79% | 1012.3 hPa | 0 mm | - | 0 W/m² | - |
| 1778146567 | 8.89° C | 79% | 1012.3 hPa | 0 mm | - | 0 W/m² | - |
| 1778146266 | 8.89° C | 78% | 1012.4 hPa | 0 mm | - | 0 W/m² | - |
| 1778145961 | 8.89° C | 78% | 1012.3 hPa | 0 mm | - | 0 W/m² | - |
| 1778145658 | 8.89° C | 77% | 1012.1 hPa | 0 mm | - | 0 W/m² | - |
| 1778145355 | 8.89° C | 77% | 1012.1 hPa | 0 mm | - | 0 W/m² | - |
| 1778145051 | 8.89° C | 77% | 1012.3 hPa | 0 mm | - | 0 W/m² | - |
| 1778144747 | 8.89° C | 76% | 1012.3 hPa | 0 mm | - | 0 W/m² | - |
| 1778144444 | 8.89° C | 76% | 1012.1 hPa | 0 mm | - | 0 W/m² | - |
* Rain latest hour (hover to see other rain measurements)
** Current wind speed in m/s (hover to see current wind gust speed)